This is the latest recevied weather packets stored in our database for station/object IW7DVM-13. If no packets are shown the sender has not sent any weather packets the latest 10 day(s).
| Time | Temp. | Humidity | Pressure | Rain* | Wind** | Luminosity | Snow |
|---|---|---|---|---|---|---|---|
| 1788076203 | 34.44° C | 39% | 1009 hPa | 0 mm | - | - | - |
| 1788075903 | 34.44° C | 41% | 1009 hPa | 0 mm | - | - | - |
| 1788075603 | 33.89° C | 44% | 1009.1 hPa | 0 mm | - | - | - |
| 1788075303 | 33.89° C | 43% | 1008.8 hPa | 0 mm | - | - | - |
| 1788075003 | 33.89° C | 40% | 1008.8 hPa | 0 mm | - | - | - |
| 1788074703 | 33.89° C | 37% | 1008.8 hPa | 0 mm | - | - | - |
| 1788074403 | 33.89° C | 38% | 1008.8 hPa | 0 mm | - | - | - |
| 1788074103 | 33.33° C | 39% | 1008.6 hPa | 0 mm | - | - | - |
| 1788073803 | 32.78° C | 39% | 1008.5 hPa | 0 mm | - | - | - |
| 1788073503 | 32.78° C | 41% | 1008.4 hPa | 0 mm | - | - | - |
| 1788073203 | 32.22° C | 42% | 1008.4 hPa | 0 mm | - | - | - |
| 1788072903 | 31.67° C | 43% | 1008.6 hPa | 0 mm | - | - | - |
| 1788072603 | 31.11° C | 44% | 1008.7 hPa | 0 mm | - | - | - |
| 1788072303 | 30.56° C | 45% | 1008.8 hPa | 0 mm | - | - | - |
| 1788072003 | 30.56° C | 45% | 1008.7 hPa | 0 mm | - | - | - |
| 1788071703 | 30° C | 45% | 1008.7 hPa | 0 mm | - | - | - |
| 1788071403 | 30° C | 45% | 1008.6 hPa | 0 mm | - | - | - |
| 1788071103 | 30° C | 46% | 1008.5 hPa | 0 mm | - | - | - |
| 1788070803 | 30.56° C | 46% | 1008.5 hPa | 0 mm | - | - | - |
| 1788070503 | 30.56° C | 46% | 1008.6 hPa | 0 mm | - | - | - |
| 1788070203 | 30° C | 47% | 1009 hPa | 0 mm | - | - | - |
| 1788069903 | 29.44° C | 48% | 1009.1 hPa | 0 mm | - | - | - |
| 1788069603 | 29.44° C | 48% | 1008.8 hPa | 0 mm | - | - | - |
| 1788069303 | 28.89° C | 49% | 1008.7 hPa | 0 mm | - | - | - |
| 1788069003 | 28.89° C | 49% | 1008.2 hPa | 0 mm | - | - | - |
* Rain latest hour (hover to see other rain measurements)
** Current wind speed in m/s (hover to see current wind gust speed)